الصفحة الرئيسية
METAR-TAF:

METAR-TAF

مطار :

Sisseton Municipal Airport

Sisseton, داكوتا الجنوبية, الولايات المتحدة

دائرة عرض: 45-40-08N, خط طول: 096-59-29W, ارتفاع: 354 متر

مراقبة الطقس الحالي

تاريخ ووقت الإصدار 1ساعة و 11 دقيقة قبل الساعة 13:56UTC
ريح 13 عقدة من الشمال/الشمال الغربي
درجة الحرارة -1°درجة مئوية
الرطوبة 100%
ضغط 1021 hPa

METAR: K8D3 241356Z AUTO 33013KT M01/M01 A3014 RMK AO1 SLP223 T10111011

زمن: 10:07 (15:07 UTC)


TAF: مفقودة

أرصاد الطقس والتوقعات من أكثر من 4000 مطار (تقارير الطقس للمطار METAR والتنبؤ بالطقس بالمطارTAF).

المحطات المتاحة هي النقط الصفراء والحمراء على الخريطة.

حرك المؤشر فوق النقطة لمعرفة اسم المحطة.

ثم انقر لمعرفة أرصاد وتوقعات الطقس.

لتغيير الخارطة: اضغط على الأزرار الخضراء مع رمز الصليب الأسود للتكبير. على الزر الأخضر مع شرطة للتصغير، أو على الأسهم الخضراء للخرائط المجاورة.


METAR-TAF: